Location: Home
(42.5358°N, 72.7383°W)
Time: 17:07:29
(UTC-05:00)

Tiros 1 - Pass Details

Date: 06 December 2021
Orbit: 629 x 664 km, 48.4° (Epoch: 18 January)

Event Time Altitude Azimuth Distance (km) Brightness Sun altitude
Rises 16:06:05 0° 202° (SSW) 2,900 11.5 1.0°
Reaches altitude 10° 16:08:46 10° 187° (S) 1,999 10.3 0.6°
Maximum altitude 16:12:20 22° 136° (SE) 1,363 8.7 0.0°
Drops below altitude 10° 16:15:56 10° 85° (E) 2,018 9.2 -0.5°
Enters shadow 16:18:29 - 71° (ENE) 2,873 9.8 -0.9°
Sets 16:18:40 0° 71° (ENE) 2,936 - -1.0°
